Weather in Yorkton

Canada     51°12′34″N   102°27′46″W
temp.,
°C
wind,
m/s
gust,
m/s
humid.,
%
clouds,
%
prec.,
mm/h
press.,
hPa
HPBL,
m
23 october, sat
sat2300:00+2se5974100 0.0 1020643
03:00+2ese5974100 0.0 1019783
06:00+1se5107375 0.0 1018732
09:00+3se71064100 0.0 1017990
12:00+5se810545 0.0 10151061
15:00+7se89475 0.0 10131120
18:00+4se6125735 0.0 1013514
21:00+3se71463100 0.0 1014621
24 october, sun
sun2400:00+1ese7147199 0.0 1014509
03:00+1ese61476100 0.0 1013473
06:00+1ese61378100 0.0 1014465
09:00+2se61276100 0.1 1015596
12:00+2se51395100 1.1 1016507
15:00+2se51296100 0.3 1016528
18:00+2se61293100 0.4 1017700
21:00+2se61295100 0.0 1017731
25 october, mon
mon2500:00+2sse61192100 0.2 1017878
03:00+2sse61396100 0.1 1017586
06:00+2se71388100 0.1 1016595
09:00+3sse81682100 0.0 1015646
12:00+6sse9176474 0.0 1013758
15:00+8se91760100 0.0 1010871
18:00+6se101867100 0.0 1009801
21:00+6se101964100 0.0 1007833
26 october, tue
tue2600:00+5se91762100 0.0 1006813
03:00+5se81663100 0.0 1003692
06:00+4se6146997 0.0 1002607
09:00+5se61274100 0.0 1001693
12:00+7sse61180100 0.4 999675
15:00+7sse51188100 2.3 998599
18:00+7sse4994100 3.1 998441
21:00+7ssw2597100 1.9 998198
27 october, wed
wed2700:00+6sw248893 2.0 998103
03:00+5sw2288100 0.0 100033
06:00+4sw1183100 0.0 100010
09:00+5wnw2374100 0.0 100179
12:00+9n115996 0.0 1001339
15:00+11nne1154100 0.0 1002558
18:00+8n117399 0.0 100410
21:00+7nnw228135 0.0 100710